O.R. Tambo International Airport (JNB/FAOR)




Flight Aircraft Arriving
CPX975 B763
HKJK - Jomo Kenyatta International Airport
Kenya Nairobi, Kenya
Flight Aircraft Departing
CPX973 B763
HKJK - Jomo Kenyatta International Airport
Kenya Nairobi, Kenya
Airport Information
Location: Johannesburg, ZA
Coordinates: -26.1337 / 28.2423
Elevation:
Time Offset:
Local Time:
UTC Time:
Jet A Price: $0.95/lbs

Current Weather
METAR: FAOR 130100Z 33009KT CAVOK 05/M06 Q1025 NOSIG
TAF: TAF FAOR 122200Z 1300/1406 35015KT CAVOK TX16/1313Z TN04/1305Z BECMG 1308/1310 29015KT BECMG 1322/1324 22015KT

Recent Arrivals
Date Flight Type Depart
03/19/2020 CPX973 B763 Jomo Kenyatta International Airport (HKJK)
Recent Departures
Date Flight Type Arrive
03/19/2020 CPX975 B763 Jomo Kenyatta International Airport (HKJK)